TimeEST,TemperatureF,Dew PointF,Humidity,Sea Level PressureIn,VisibilityMPH,Wind Direction,Wind SpeedMPH,Gust SpeedMPH,PrecipitationIn,Events,Conditions,WindDirDegrees,DateUTC
12:15 AM,44.6,32.0,61,30.24,10.0,South,8.1,-,N/A,,Clear,170,2013-02-19 05:15:00
12:35 AM,44.6,32.0,61,30.23,10.0,SSE,8.1,-,N/A,,Clear,160,2013-02-19 05:35:00
12:55 AM,42.8,32.0,66,30.22,10.0,SSE,8.1,-,N/A,,Clear,160,2013-02-19 05:55:00
1:15 AM,42.8,32.0,66,30.21,10.0,SSE,6.9,-,N/A,,Clear,160,2013-02-19 06:15:00
1:35 AM,42.8,32.0,66,30.20,10.0,South,5.8,-,N/A,,Clear,170,2013-02-19 06:35:00
1:55 AM,42.8,32.0,66,30.19,10.0,SSE,4.6,-,N/A,,Clear,160,2013-02-19 06:55:00
2:15 AM,42.8,32.0,66,30.18,10.0,SSE,5.8,-,N/A,,Clear,160,2013-02-19 07:15:00
2:35 AM,42.8,33.8,70,30.16,10.0,South,5.8,-,N/A,,Clear,170,2013-02-19 07:35:00
2:55 AM,42.8,33.8,70,30.16,10.0,South,4.6,-,N/A,,Clear,190,2013-02-19 07:55:00
3:15 AM,41.0,33.8,76,30.15,10.0,South,4.6,-,N/A,,Clear,180,2013-02-19 08:15:00
3:35 AM,41.0,33.8,76,30.15,10.0,Calm,Calm,-,N/A,,Scattered Clouds,0,2013-02-19 08:35:00
3:55 AM,41.0,33.8,76,30.14,10.0,SSW,3.5,-,N/A,,Scattered Clouds,200,2013-02-19 08:55:00
4:15 AM,41.0,35.6,81,30.12,10.0,South,5.8,-,N/A,,Clear,180,2013-02-19 09:15:00
4:35 AM,42.8,35.6,76,30.12,10.0,SSW,4.6,-,N/A,,Clear,200,2013-02-19 09:35:00
4:55 AM,42.8,35.6,76,30.11,10.0,SSW,5.8,-,N/A,,Scattered Clouds,200,2013-02-19 09:55:00
5:15 AM,41.0,35.6,81,30.11,10.0,South,4.6,-,N/A,,Scattered Clouds,190,2013-02-19 10:15:00
5:35 AM,42.8,35.6,76,30.12,10.0,SSW,3.5,-,N/A,,Scattered Clouds,200,2013-02-19 10:35:00
5:55 AM,42.8,35.6,76,30.12,10.0,South,4.6,-,N/A,,Scattered Clouds,190,2013-02-19 10:55:00
6:15 AM,42.8,37.4,81,30.10,10.0,South,5.8,-,N/A,,Scattered Clouds,170,2013-02-19 11:15:00
6:35 AM,42.8,37.4,81,30.10,10.0,South,6.9,-,N/A,,Mostly Cloudy,180,2013-02-19 11:35:00
6:55 AM,44.6,39.2,81,30.11,10.0,SSW,6.9,-,N/A,,Overcast,210,2013-02-19 11:55:00
7:15 AM,44.6,39.2,81,30.11,10.0,SSW,4.6,-,N/A,,Overcast,210,2013-02-19 12:15:00
7:35 AM,44.6,42.8,93,30.10,10.0,South,4.6,-,N/A,Rain,Rain,180,2013-02-19 12:35:00
7:55 AM,44.6,44.6,100,30.09,10.0,South,6.9,-,N/A,,Overcast,180,2013-02-19 12:55:00
8:15 AM,46.4,42.8,87,30.09,10.0,South,9.2,-,N/A,,Overcast,190,2013-02-19 13:15:00
8:35 AM,46.4,42.8,87,30.09,10.0,SSW,9.2,-,N/A,Rain,Light Rain,200,2013-02-19 13:35:00
8:55 AM,48.2,44.6,87,30.08,10.0,South,10.4,-,N/A,,Drizzle,190,2013-02-19 13:55:00
9:15 AM,48.2,46.4,93,30.08,10.0,South,8.1,-,N/A,,Drizzle,190,2013-02-19 14:15:00
9:35 AM,50.0,48.2,94,30.07,10.0,South,9.2,-,N/A,,Overcast,190,2013-02-19 14:35:00
9:55 AM,51.8,46.4,82,30.08,10.0,Calm,Calm,-,N/A,,Overcast,0,2013-02-19 14:55:00
10:15 AM,51.8,50.0,94,30.11,7.0,NW,5.8,-,N/A,Rain,Light Rain,310,2013-02-19 15:15:00
10:35 AM,51.8,51.8,100,30.10,10.0,NNW,3.5,-,N/A,,Overcast,330,2013-02-19 15:35:00
10:55 AM,50.0,50.0,100,30.11,7.0,NW,5.8,-,N/A,,Light Drizzle,320,2013-02-19 15:55:00
11:15 AM,50.0,50.0,100,30.11,5.0,NW,3.5,-,N/A,,Drizzle,320,2013-02-19 16:15:00
11:35 AM,48.2,48.2,100,30.11,5.0,North,5.8,-,N/A,Rain,Rain,350,2013-02-19 16:35:00
11:55 AM,48.2,48.2,100,30.11,4.0,NW,3.5,-,N/A,,Drizzle,320,2013-02-19 16:55:00
12:15 PM,48.2,48.2,100,30.10,5.0,Calm,Calm,-,N/A,,Drizzle,0,2013-02-19 17:15:00
12:35 PM,50.0,50.0,100,30.09,3.0,Calm,Calm,-,N/A,,Heavy Drizzle,0,2013-02-19 17:35:00
12:55 PM,50.0,50.0,100,30.08,2.5,WSW,4.6,-,N/A,,Heavy Drizzle,250,2013-02-19 17:55:00
1:15 PM,51.8,51.8,100,30.07,1.8,WSW,5.8,-,N/A,,Drizzle,250,2013-02-19 18:15:00
1:35 PM,51.8,51.8,100,30.06,4.0,WSW,4.6,-,N/A,,Overcast,250,2013-02-19 18:35:00
1:55 PM,51.8,51.8,100,30.06,4.0,West,8.1,-,N/A,,Overcast,270,2013-02-19 18:55:00
2:15 PM,53.6,53.6,100,30.04,10.0,West,9.2,-,N/A,,Overcast,270,2013-02-19 19:15:00
2:35 PM,55.4,55.4,100,30.04,10.0,West,8.1,-,N/A,,Overcast,270,2013-02-19 19:35:00
2:55 PM,55.4,55.4,100,30.04,10.0,West,6.9,-,N/A,,Overcast,270,2013-02-19 19:55:00
3:15 PM,57.2,57.2,100,30.04,10.0,WNW,6.9,-,N/A,,Overcast,290,2013-02-19 20:15:00
3:35 PM,59.0,57.2,94,30.03,10.0,West,8.1,-,N/A,,Mostly Cloudy,260,2013-02-19 20:35:00
3:55 PM,60.8,55.4,82,30.04,10.0,West,8.1,-,N/A,,Mostly Cloudy,270,2013-02-19 20:55:00
4:15 PM,62.6,53.6,72,30.04,10.0,West,11.5,16.1,N/A,,Mostly Cloudy,270,2013-02-19 21:15:00
4:35 PM,62.6,48.2,59,30.03,10.0,West,13.8,17.3,N/A,,Mostly Cloudy,270,2013-02-19 21:35:00
4:55 PM,62.6,46.4,55,30.04,10.0,West,11.5,16.1,N/A,,Scattered Clouds,270,2013-02-19 21:55:00
5:15 PM,62.6,46.4,55,30.04,10.0,WNW,9.2,-,N/A,,Scattered Clouds,300,2013-02-19 22:15:00
5:35 PM,60.8,46.4,59,30.05,10.0,WNW,5.8,-,N/A,,Clear,290,2013-02-19 22:35:00
5:55 PM,59.0,46.4,63,30.05,10.0,West,4.6,-,N/A,,Clear,280,2013-02-19 22:55:00
6:15 PM,59.0,46.4,63,30.05,10.0,West,3.5,-,N/A,,Clear,270,2013-02-19 23:15:00
7:35 PM,50.0,50.0,100,30.08,10.0,Calm,Calm,-,N/A,,Clear,0,2013-02-20 00:35:00
7:55 PM,48.2,48.2,100,30.08,10.0,West,3.5,-,N/A,,Clear,280,2013-02-20 00:55:00
8:55 PM,51.8,33.8,50,30.10,10.0,NW,10.4,-,N/A,,Clear,320,2013-02-20 01:55:00
9:15 PM,51.8,30.2,44,30.11,10.0,NW,6.9,-,N/A,,Clear,320,2013-02-20 02:15:00
9:35 PM,50.0,30.2,47,30.11,10.0,NW,6.9,-,N/A,,Clear,320,2013-02-20 02:35:00
9:55 PM,50.0,30.2,47,30.12,10.0,NW,5.8,-,N/A,,Clear,320,2013-02-20 02:55:00
10:15 PM,48.2,30.2,50,30.13,10.0,NW,6.9,-,N/A,,Clear,320,2013-02-20 03:15:00
10:35 PM,46.4,30.2,53,30.14,10.0,NW,6.9,-,N/A,,Clear,320,2013-02-20 03:35:00
10:55 PM,46.4,28.4,50,30.14,10.0,NNW,6.9,-,N/A,,Clear,330,2013-02-20 03:55:00
11:15 PM,44.6,28.4,53,30.14,10.0,NNW,6.9,-,N/A,,Clear,330,2013-02-20 04:15:00
11:35 PM,46.4,24.8,43,30.14,10.0,NNW,11.5,-,N/A,,Clear,330,2013-02-20 04:35:00
11:55 PM,46.4,23.0,40,30.15,10.0,NNW,9.2,-,N/A,,Clear,330,2013-02-20 04:55:00